SCP
1 1 1 1 1 1 1 1 1 1 0 0 0 0 0 0 0 0 0 0 0 0 0 0 0 0 0 0 0 0 0 0 0 0 0 0 0 0
1 1 1 1 1 1 1 1 1 1 0 0 0 0 0 0 0 0 0 0 0 0 0 0 0 0 0 0 0 0 0 0 0 0 0 0 0 0
1 1 1 1 1 1 1 1 1 1 0 0 0 0 0 0 0 0 0 0 0 0 0 0 0 0 0 0 0 0 0 0 0 0 0 0 0 0
1 1 1 1 1 1 1 1 1 1 1 0 0 0 0 0 0 0 0 0 0 0 0 0 0 0 0 0 0 0 0 0 0 0 0 0 0 0
0 0 1 1 1 1 1 1 1 1 1 0 0 0 0 0 0 0 0 0 0 0 0 0 0 0 0 0 0 0 0 0 0 0 0 0 0 0
0 0 0 1 1 1 1 1 1 1 0 0 0 0 0 0 0 0 0 0 0 0 0 0 0 0 0 0 0 0 0 0 0 0 0 0 0 0
0 0 0 0 1 1 0 0 0 0 0 0 0 0 0 0 0 0 0 0 0 0 0 0 0 0 0 0 0 0 0 0 0 0 0 0 0 0
0 0 0 1 0 0 0 0 0 0 0 0 0 0 0 0 0 0 0 0 0 0 0 0 0 0 0 0 0 0 0 0 0 0 0 0 0 0
0 0 1 1 0 0 0 0 0 0 0 0 0 0 0 0 0 0 0 0 0 0 0 0 0 0 0 0 0 0 0 0 0 0 0 0 0 0
0 0 1 1 0 0 0 0 0 0 0 0 0 0 0 0 0 0 0 0 0 0 0 0 0 0 0 0 0 0 0 0 0 0 0 0 0 0
0 0 0 0 0 0 0 0 0 0 0 0 0 0 0 0 0 0 0 0 0 0 0 0 0 0 0 0 0 0 0 0 0 0 0 0 0 0
0 0 0 0 0 0 0 0 0 0 0 0 0 0 0 0 0 0 0 0 0 0 0 0 0 0 0 0 0 0 0 0 0 0 0 0 0 0
0 0 0 0 0 0 0 0 0 0 0 0 0 0 0 0 0 0 0 0 0 0 0 0 0 0 0 0 0 0 0 0 0 0 0 0 0 0
0 0 0 0 0 0 0 0 0 0 0 0 0 0 0 0 0 0 0 0 0 0 0 0 0 0 0 0 0 0 0 0 0 0 0 0 0 0
0 0 0 0 0 0 0 0 0 0 0 0 0 0 0 0 0 0 0 0 0 0 0 0 0 0 0 0 0 0 0 0 0 0 0 0 0 0
0 0 0 0 0 0 0 0 0 0 0 0 0 0 0 0 0 0 0 0 0 0 0 0 0 0 0 0 0 0 0 0 0 0 0 0 0 0
0 0 0 0 0 0 0 0 0 0 0 0 0 0 0 0 0 0 0 0 0 0 0 0 0 0 0 0 0 0 0 0 0 0 0 0 0 0
0 0 0 0 0 0 0 0 0 0 0 0 0 0 0 0 0 0 0 0 0 0 0 0 0 0 0 0 0 0 0 0 0 0 0 0 0 0
0 0 0 0 0 0 0 0 0 0 0 0 0 0 0 0 0 0 0 0 0 0 0 0 0 0 0 0 0 0 0 0 0 0 0 0 0 0
0 0 0 0 0 0 0 0 0 0 0 0 0 0 0 0 0 0 0 0 0 0 0 0 0 0 0 0 0 0 0 0 0 0 0 0 0 0
0 0 0 0 0 0 0 0 0 0 0 0 0 0 0 0 0 0 0 0 0 0 0 0 0 0 0 0 0 0 0 0 0 0 0 0 0 0
0 0 0 0 0 0 0 0 0 0 0 0 0 0 0 0 0 0 0 0 0 0 0 0 0 0 0 0 0 0 0 0 0 0 0 0 0 0
0 0 0 0 0 0 0 0 0 0 0 0 0 0 0 0 0 0 0 0 0 0 0 0 0 0 0 0 0 0 0 0 0 0 0 0 0 0
Wind_Speed
5 5 6 5 5 5 5 5 5 6 6 5 4 4 4 4 5 6 6 7 9 11 11 11 11 12 12 12 12 13 13 13 13 14 15 15 16 17
4 5 6 5 5 4 4 5 5 6 6 4 4 4 4 4 5 6 7 7 8 10 10 11 11 12 13 13 13 13 13 13 14 15 16 16 17 17
5 5 6 6 5 4 4 4 5 5 7 5 4 4 5 5 5 6 6 6 6 8 10 11 11 12 13 13 13 14 14 14 15 15 16 17 17 17
6 6 6 5 5 5 4 5 5 6 6 7 5 4 6 6 6 6 6 6 6 8 10 11 12 13 14 14 14 14 14 14 15 15 16 17 17 17
5 5 5 6 5 4 5 5 4 4 5 5 5 4 4 4 5 6 6 6 7 7 9 10 12 13 15 15 15 15 15 15 15 16 16 16 16 17
4 4 5 5 5 5 4 4 4 4 4 5 4 4 4 4 4 4 5 6 6 6 7 8 10 13 14 15 15 15 15 15 16 16 16 15 15 16
3 3 3 2 2 3 3 3 3 3 3 3 4 4 4 3 4 4 6 6 7 5 5 6 7 8 8 11 13 14 14 15 16 16 16 16 16 17
3 3 2 2 1 2 3 3 4 4 4 4 4 5 5 5 5 5 5 6 6 3 5 7 6 7 7 7 9 11 13 15 15 16 16 17 17 17
3 3 2 1 2 3 2 3 3 4 5 5 6 6 5 5 6 6 6 7 8 6 6 8 7 8 7 7 10 11 12 13 14 15 16 16 17 17
2 3 3 2 2 3 2 2 2 3 3 4 5 5 5 5 6 7 7 8 8 6 6 7 6 7 7 8 10 11 12 13 14 15 15 16 16 17
2 2 3 3 2 3 3 3 3 3 2 3 5 5 6 6 6 4 5 5 6 5 4 5 6 7 7 7 7 8 11 12 13 14 14 15 15 15
2 2 2 3 3 3 3 3 3 4 4 4 4 4 5 5 6 5 5 5 5 5 4 4 5 5 6 5 5 6 7 10 12 14 14 14 14 10
2 2 2 3 4 4 4 3 4 5 4 4 4 4 4 4 4 4 4 5 6 6 5 4 5 5 6 7 6 6 7 7 7 9 11 13 13 11
3 2 2 3 4 4 3 3 4 4 3 3 3 3 4 4 5 5 6 6 7 8 8 7 6 7 7 8 8 6 7 7 7 7 7 9 10 12
2 3 4 4 4 2 2 3 3 2 2 3 3 4 4 5 5 5 6 6 7 7 7 8 7 7 8 8 8 8 8 7 6 6 6 6 6 6
2 2 2 2 2 2 2 2 2 2 3 3 3 4 4 4 4 5 5 5 6 6 6 7 7 8 8 9 9 9 8 6 6 6 6 6 6 6
3 2 2 1 2 2 2 2 2 2 2 2 3 3 4 4 5 5 5 5 6 7 7 5 6 6 8 9 9 8 8 7 6 6 6 6 6 6
2 2 2 2 2 2 3 3 3 3 3 3 3 4 4 5 5 5 5 5 6 6 7 6 6 6 5 6 8 9 8 7 6 6 6 6 7 5
2 2 2 2 2 3 3 3 3 3 3 3 4 4 4 5 5 5 5 5 6 6 7 6 6 6 7 8 6 6 7 7 7 7 6 6 7 6
2 2 2 3 3 3 3 3 3 4 4 4 4 4 5 5 5 6 6 6 7 7 7 6 5 5 7 8 8 7 8 8 7 7 6 5 5 6
2 3 3 3 3 3 3 4 4 4 4 4 5 5 5 5 6 6 6 9 8 7 7 7 7 9 7 6 7 7 6 7 8 6 6 5 4 4
3 3 3 3 3 3 3 4 4 4 5 5 5 5 5 5 6 7 7 7 7 7 8 7 7 6 6 7 8 8 8 7 7 9 8 6 4 4
3 3 3 3 3 3 4 4 5 5 5 5 5 5 6 6 6 7 7 7 7 7 7 7 6 5 6 6 7 7 8 7 5 5 5 6 8 9
Wind_Direction
242 243 244 245 245 246 240 234 238 246 243 239 240 232 241 253 245 246 254 251 250 252 254 260 267 270 264 263 263 261 259 259 259 259 254 250 250 253
242 241 241 243 242 238 234 233 238 246 253 251 255 259 259 264 261 261 259 258 251 251 254 258 261 265 261 262 263 262 259 258 258 258 256 252 250 252
238 240 242 244 246 241 238 235 236 241 251 260 265 265 266 264 267 268 269 266 258 252 256 259 262 264 262 260 262 263 261 259 258 258 258 256 252 252
241 239 243 244 246 245 240 238 240 242 248 258 266 267 271 273 275 277 277 274 271 265 257 259 260 261 262 260 260 260 260 260 259 259 257 257 254 252
250 247 246 241 242 245 243 242 249 254 254 257 265 270 270 273 281 282 284 282 280 273 263 257 260 264 262 258 257 257 257 257 256 256 256 254 255 252
255 253 251 246 247 248 244 244 248 251 252 254 261 266 270 277 281 283 287 288 286 282 274 272 270 266 259 256 255 254 254 256 257 257 255 253 252 252
262 262 259 263 269 262 259 257 250 246 248 254 259 266 269 280 281 284 283 290 286 277 283 282 279 273 263 254 251 251 254 257 257 257 257 254 252 251
263 264 263 249 245 256 265 272 267 256 257 256 259 259 272 279 287 284 285 287 284 283 291 286 281 277 273 265 263 260 258 258 258 259 259 256 254 251
270 262 263 272 259 256 261 262 264 272 267 262 259 263 273 280 282 279 278 281 279 289 293 281 279 274 279 279 278 268 263 262 263 264 261 260 257 253
303 277 265 266 265 264 264 269 277 287 281 268 266 273 280 285 280 277 280 283 284 281 277 275 281 283 288 281 274 266 266 267 268 269 265 263 261 258
304 304 286 267 282 280 268 269 284 296 305 294 291 287 290 291 288 280 280 284 287 285 283 276 285 291 285 276 276 276 273 271 272 272 269 267 265 261
309 306 311 301 300 294 276 274 281 295 304 304 296 293 291 289 289 275 275 276 286 282 281 288 288 302 292 275 279 284 278 274 274 273 271 269 267 261
301 300 309 324 322 317 300 285 284 295 293 294 296 299 299 294 293 291 284 274 273 271 281 295 286 286 277 289 287 281 279 280 277 274 271 268 266 259
293 298 311 326 321 316 310 307 302 296 284 287 292 300 302 301 301 301 296 288 278 274 278 279 273 277 280 282 283 283 281 281 278 275 275 273 265 257
301 309 316 321 313 305 313 314 305 295 290 288 290 296 299 299 301 300 300 296 287 279 274 272 269 270 269 271 278 285 287 282 273 273 275 273 267 260
293 298 306 316 311 319 315 312 301 295 292 291 296 299 302 300 298 301 300 302 296 291 280 275 272 267 268 272 273 278 279 274 278 279 278 276 271 263
302 295 296 301 307 311 313 323 318 302 292 293 294 296 297 299 300 302 295 295 288 292 299 296 285 275 267 266 271 269 273 275 273 274 276 277 275 266
301 292 298 302 305 312 313 316 316 316 315 306 295 295 296 296 297 298 292 287 286 288 292 298 299 296 286 264 249 266 271 275 281 276 272 270 273 272
284 293 298 301 302 305 305 304 305 307 305 297 295 297 297 296 295 294 292 289 287 287 289 292 293 289 289 290 276 247 274 283 284 276 267 265 269 270
277 281 286 293 297 298 298 299 299 300 298 296 296 295 293 290 289 290 290 289 290 289 288 285 283 282 278 281 284 282 265 271 275 275 273 274 275 269
269 273 278 283 287 290 291 292 293 294 294 294 292 290 290 289 287 288 289 290 288 286 287 288 287 286 281 275 275 281 282 264 265 271 271 271 275 271
270 272 276 279 281 283 285 287 288 289 291 288 290 291 290 288 287 288 289 290 289 287 287 288 290 286 279 274 279 287 294 294 276 266 257 248 249 244
272 274 276 276 276 278 280 282 284 286 286 288 290 292 292 289 287 285 286 286 286 287 290 292 291 287 282 278 281 286 292 295 294 294 284 271 262 263